SCOUT A DEB, 2994

Orbit data source: Space-Track

SCOUT A DEB, 2994 is space debris in LEO originally from a launch on Mon, 25 Sep 1967 UTC launched from the Air Force Western Test Range (AFWTR). Debris objects in space refer to the collection of defunct objects orbiting the Earth. Examples of debris include non-operational satellites, rocket bodies, and fragments generated from explosions, collisions, or faulty payload assembly.

Loading next visibility...
Identifier
2994, 1967-092C
Orbit
LEO
Country
Flag of USUS
Related business
Manufacturer
Unknown
Mission
Spacecraft
Bus & Motor
Unknown
Mass
Unknown
Launch date (UTC)
1967-09-25 (58 years ago)
Launch vehicle
Unknown
Launch site
Air Force Western Test Range (AFWTR)
Object type
Payload
Rocket body
Debris
Shape & HBR
Unknown shape, 0.1 m
Radar Cross Section
Small (<0.1 m²)

Expand to show TLE details & history
Last TLE update: 1 day ago

TLE from 1 day ago
0 SCOUT A DEB
1 02994U 67092C   26032.87409715  .00000577  00000-0  39096-3 0  9991
2 02994  89.4407 353.4957 0086509 270.9911  88.1356 13.97338912955883
Epoch: 2026-02-01T20:58Z
TLE epoch observation values (Epoch: 2026-02-01T20:58:41.993Z)
Latitude
-0.00002°
Longitude
-93.25675°
Altitude
904.541 km
Speed
7.4 km/s
True Right ascension
23h 33m 58s
True Declination
0° 00' 00"
Sunlit
Object was in daylight at epoch
Visualization orbit readout
Latitude
Unknown
Longitude
Unknown
Altitude
Unknown
Speed
Unknown
Apparent Right ascension
Unknown
Apparent Declination
Unknown
Sunlit
N/A
Visualization observer readout
Local Sidereal Time
03:58:23
Azimuth
Unknown
Elevation
Unknown
Doppler factor
Unknown
Orbital elements
Apogee altitude
962.969 km
Perigee altitude
837.044 km
Semi-major axis
7,278.143 km
Eccentricity
0.00865
Inclination
89.4407°
RAAN
353.4957°
Arg. of periapsis
270.9911°
True anomaly
89.12669°
Mean anomaly
88.1356°
Eccentric anomaly
88.63112°
Mean motion
3.49552 °/min
Orbital period
102.99 mins
BSTAR
0.00039096
Loading maneuver chart data...
Computing Atmospheric mass density...
Loading historical data...
Loading historical data...
Loading historical data...
Loading historical data...
Loading historical data...
Loading historical data...
Loading historical data...

Documentation

Showing up to 5 results
|